Broken Bow, NE

8:59 PM CDT on March 30, 2017 (GMT -0500)
Broken Bow Municipal

Weather History for KBBW - March, 2013

Change the Weather History Date:

Monday, March 18, 2013

  Actual Average Record
Temperature  
Mean Temperature 30 °F 38 °F  
Max Temperature 41 °F 52 °F 83 °F (1921)
Min Temperature 19 °F 25 °F -8 °F (1923)
Degree Days  
Heating Degree Days 35 26  
Month to date heating degree days 562 533  
Cooling Degree Days 0 0  
Month to date cooling degree days 0 0  
Year to date cooling degree days 0 0  
Moisture  
Dew Point 15 °F    
Average Humidity 53    
Maximum Humidity 84    
Minimum Humidity 21    
Precipitation  
Precipitation 0.00 in 0.04 in 1.22 in (1987)
Sea Level Pressure  
Sea Level Pressure 29.94 in    
Wind  
Wind Speed 13 mph (NW)    
Max Wind Speed 32 mph    
Max Gust Speed 39 mph    
Visibility 10 miles    
Events      
T = Trace of Precipitation, MM = Missing Value Source: NWS Daily Summary

Daily Weather History Graph

Daily Weather History Graph

Search for Another Location

Airport or City:

Trip Planner

Search our weather history database for the weather conditions in past years. The results will help you decide how hot, cold, wet, or windy it might be!

Date:

Astronomy

Mar. 18, 2013 Rise Set
Actual Time 7:44 AM CDT 7:48 PM CDT
Civil Twilight 7:17 AM CDT 8:16 PM CDT
Nautical Twilight 6:44 AM CDT 8:48 PM CDT
Astronomical Twilight 6:12 AM CDT 9:21 PM CDT
Moon 11:41 AM CDT (3/18) 1:53 AM CDT (3/18)
Length of Visible Light 12h 59m
Length of Day
12h 04m
Waxing Crescent, 41% of the Moon is Illuminated
Mar 18
Waxing Crescent
Mar 19
First Quarter
Mar 27
Full
Apr 2
Last Quarter
Apr 10
New

Hourly Weather History & Observations

Time (CDT) Temp. Windchill Dew Point Humidity Pressure Visibility Wind Dir Wind Speed Gust Speed Precip Events Conditions
12:21 AM 33.8 °F 23.9 °F 28.4 °F 81% 29.74 in 10.0 mi NW 15.0 mph 21.9 mph N/A   Overcast
12:53 AM 34.0 °F 21.5 °F 26.1 °F 73% 29.81 in 10.0 mi NNW 24.2 mph 34.5 mph N/A   Overcast
1:53 AM 32.0 °F 24.8 °F 26.1 °F 79% 29.83 in 10.0 mi WNW 8.1 mph - N/A   Mostly Cloudy
2:53 AM 30.9 °F 20.2 °F 24.1 °F 76% 29.85 in 10.0 mi NW 15.0 mph - N/A   Partly Cloudy
3:53 AM 30.0 °F 20.0 °F 19.9 °F 66% 29.86 in 10.0 mi NNW 12.7 mph - N/A   Clear
4:53 AM 27.0 °F 18.7 °F 19.9 °F 75% 29.87 in 10.0 mi NW 8.1 mph - N/A   Clear
5:43 AM 26.6 °F 22.6 °F 21.2 °F 80% 29.82 in 10.0 mi NW 3.5 mph - N/A   Mostly Cloudy
5:53 AM 27.0 °F 20.5 °F 21.9 °F 81% 29.88 in 10.0 mi NNW 5.8 mph - N/A   Overcast
6:49 AM 24.8 °F 17.9 °F 19.4 °F 80% 29.82 in 10.0 mi NW 5.8 mph - N/A   Scattered Clouds
6:53 AM 24.1 °F 17.0 °F 19.0 °F 81% 29.89 in 10.0 mi NW 5.8 mph - N/A   Partly Cloudy
7:53 AM 19.9 °F - 16.0 °F 85% 29.92 in 10.0 mi Calm Calm - N/A   Clear
8:53 AM 26.1 °F 14.5 °F 18.0 °F 71% 29.93 in 10.0 mi North 13.8 mph - N/A   Clear
9:53 AM 26.1 °F 15.6 °F 17.1 °F 69% 29.96 in 10.0 mi North 11.5 mph - N/A   Overcast
10:53 AM 30.0 °F 16.6 °F 19.0 °F 64% 29.98 in 10.0 mi NW 23.0 mph 28.8 mph N/A   Partly Cloudy
11:20 AM 30.2 °F 15.9 °F 19.4 °F 64% 29.92 in 10.0 mi NW 26.5 mph 34.5 mph N/A   Mostly Cloudy
11:40 AM 30.2 °F 16.5 °F 17.6 °F 60% 29.93 in 10.0 mi NW 24.2 mph 35.7 mph N/A   Scattered Clouds
11:53 AM 30.9 °F 16.9 °F 18.0 °F 59% 29.99 in 10.0 mi NW 26.5 mph 33.4 mph N/A   Partly Cloudy
12:53 PM 35.1 °F 23.0 °F 16.0 °F 46% 29.99 in 10.0 mi NW 24.2 mph 31.1 mph N/A   Clear
1:53 PM 37.0 °F 25.9 °F 12.0 °F 36% 29.99 in 10.0 mi NW 23.0 mph 33.4 mph N/A   Clear
2:53 PM 39.0 °F 28.0 °F 10.9 °F 32% 29.99 in 10.0 mi NW 25.3 mph 36.8 mph N/A   Clear
3:53 PM 39.9 °F 29.7 °F 9.0 °F 28% 29.98 in 10.0 mi NW 23.0 mph 35.7 mph N/A   Clear
4:53 PM 39.9 °F 31.1 °F 8.1 °F 27% 29.99 in 10.0 mi NW 17.3 mph 29.9 mph N/A   Clear
5:53 PM 39.9 °F 31.1 °F 5.0 °F 23% 29.99 in 10.0 mi NW 17.3 mph - N/A   Clear
6:53 PM 37.9 °F 27.9 °F 1.9 °F 22% 30.00 in 10.0 mi NNW 19.6 mph - N/A   Clear
7:53 PM 30.0 °F 22.4 °F 3.9 °F 33% 30.04 in 10.0 mi North 8.1 mph - N/A   Clear
8:53 PM 32.0 °F 24.8 °F 5.0 °F 32% 30.05 in 10.0 mi NNE 8.1 mph - N/A   Overcast
9:53 PM 32.0 °F 27.5 °F 5.0 °F 32% 30.06 in 10.0 mi NNE 4.6 mph - N/A   Overcast
10:53 PM 30.9 °F - 6.1 °F 35% 30.06 in 10.0 mi Calm Calm - N/A   Overcast
11:53 PM 30.0 °F - 8.1 °F 40% 30.08 in 10.0 mi Calm Calm - N/A   Overcast